[Iaude] MPEC E79: 2024 EZ1 [a=1.25,e=0.24,i=5.3,H=27.0]
    mpec at cfa.harvard.edu 
    mpec at cfa.harvard.edu
       
    Wed Mar  6 08:17:46 EST 2024
    
    
  
M.P.E.C. 2024-E79                                 Issued 2024 March 6, 13:15 UT
     The Minor Planet Electronic Circulars contain information on unusual
         minor planets, routine data on comets and natural satellites,
         and occasional editorial announcements.  They are published
    on behalf of Division F of the International Astronomical Union by the
          Minor Planet Center, Smithsonian Astrophysical Observatory,
                          Cambridge, MA 02138, U.S.A.
			  
             Prepared using the Tamkin Foundation Computer Network
                              MPC at CFA.HARVARD.EDU
            URL https://www.minorplanetcenter.net/    ISSN 1523-6714
                                    2024 EZ1                                    
Observations:
     K24E01Z  C2024 03 02.47966511 38 36.494-02 22 23.04         19.89GVEE079F51
     K24E01Z  C2024 03 02.50372211 38 58.114-02 20 18.35         20.04GVEE079F51
     K24E01Z  C2024 03 02.51572311 39 08.945-02 19 15.91         19.84GVEE079F51
     K24E01Z*1C2024 03 05.41444112 46 47.370+03 28 40.40         19.70GVEE079G96
     K24E01Z 1C2024 03 05.41962812 46 56.399+03 29 30.66         19.30GVEE079G96
     K24E01Z 1C2024 03 05.42480912 47 05.280+03 30 19.66         19.43GVEE079G96
     K24E01Z 1C2024 03 05.42999312 47 14.129+03 31 08.51         19.91GVEE079G96
     K24E01Z mC2024 03 05.49951112 49 15.960+03 42 13.90         20.67GVEE079I52
     K24E01Z mC2024 03 05.49972712 49 16.390+03 42 17.10         20.05GVEE079I52
     K24E01Z mC2024 03 05.49995412 49 16.790+03 42 18.40         20.29GVEE079I52
     K24E01Z mC2024 03 05.50017012 49 17.180+03 42 19.40               VEE079I52
     K24E01Z KB2024 03 05.95503 13 04 50.837+04 57 42.30         19.6 GXEE079J57
     K24E01Z KB2024 03 05.96127 13 05 03.144+04 58 47.28         19.5 GXEE079J57
     K24E01Z KC2024 03 05.96426913 05 06.050+04 58 14.27         19.1 GVEE079J95
     K24E01Z KB2024 03 05.96740 13 05 15.278+04 59 52.62         19.0 GXEE079J57
     K24E01Z KC2024 03 05.96873613 05 14.959+04 59 01.14         19.6 GVEE079J95
     K24E01Z KC2024 03 05.97305913 05 23.573+04 59 46.32         19.3 GVEE079J95
     K24E01Z KC2024 03 05.97632513 05 30.101+05 00 21.06         19.2 GVEE079J95
     K24E01Z  C2024 03 06.33454413 18 16.511+06 06 05.57         19.4 GVEE079H01
     K24E01Z  C2024 03 06.33843113 18 24.564+06 06 48.40         19.4 GVEE079H01
     K24E01Z  C2024 03 06.34872413 18 45.929+06 08 42.13         19.5 GVEE079H01
     K24E01Z  C2024 03 06.35571413 19 00.424+06 09 59.38         19.4 GVEE079H01
Observer details:
F51 Pan-STARRS 1, Haleakala.  Observers J. Herman, T. Lowe, P. Minguez, A.
    Schultz, I. Smith.  Measurers K. Chambers, T. de Boer, J. Fairlamb, H.
    Gao, M. Huber, C.-C. Lin, E. Magnier, Y. Ramanjooloo, R. Wainscoat, R.
    Weryk.  1.8-m Ritchey-Chretien + CCD.
G96 Mt. Lemmon Survey.  Observer G. J. Leonard.  Measurers T. Beuden, V. F.
    Carvajal, D. Fay, J. B. Fazekas, D. C. Fuls, A. R. Gibbs, A. D. Grauer, H.
    Groeller, J. K. Hogan, R. A. Kowalski, S. M. Larson, G. J. Leonard, D.
    Rankin, R. L. Seaman, F. C. Shelly, K. W. Wierzchos.  1.5-m reflector +
    10K CCD.
H01 Magdalena Ridge Observatory, Socorro.  Observers W. H. Ryan, E. V. Ryan.
    Measurer W. H. Ryan.  2.4-m f/8.9 Ritchey-Chretien + CCD.
I52 Steward Observatory, Mt. Lemmon Station.  Observer J. K. Hogan.  Measurers
    T. Beuden, V. F. Carvajal, D. Fay, J. B. Fazekas, D. C. Fuls, A. R. Gibbs,
    A. D. Grauer, H. Groeller, J. K. Hogan, R. A. Kowalski, S. M. Larson, G.
    J. Leonard, D. Rankin, R. L. Seaman, F. C. Shelly, K. W. Wierzchos.  1.0-m
    prime focus + CCD.
J57 Centro Astronomico Alto Turia, Valencia.  Observer A. Fornas.  Measurers
    A. Fornas, G. Fornas, E. Arce, V. Mas.  0.43-m f/6.8 Reflector CDK + CMO.
J95 Great Shefford.  Observer P. Birtwhistle.  0.41-m f/6.3 Schmidt-Cassegrain
    + CCD.
Orbital elements:
2024 EZ1                                                 Earth MOID = 0.0124 AU
Epoch 2024 Mar. 31.0 TT = JDT 2460400.5                 Veres                   
M 350.17405              (2000.0)            P               Q                  
n   0.70378602     Peri.   46.52203     -0.86368323     +0.50336497             
a   1.2517251      Node   163.64606     -0.48497777     -0.81588368             
e   0.2370654      Incl.    5.29418     -0.13728741     -0.28453035             
P   1.40           H   27.07          G   0.15           U   7                  
Residuals in seconds of arc
240302 F51  0.1-  0.1-    240305 I52  0.4+  0.8+    240305 J95  0.3-  0.3-
240302 F51  0.1+  0.1+    240305 I52  0.3+  0.0     240305 J95  0.1-  0.1+
240302 F51  0.0   0.0     240305 I52  0.4+  1.1-    240306 H01  0.1+  0.0
240305 G96 (1.3-  0.5-)   240305 J57  1.1+  0.4+    240306 H01  0.0   0.1-
240305 G96  0.3+  0.3+    240305 J57  0.5+  0.4-    240306 H01  0.1+  0.0
240305 G96  0.3-  0.1-    240305 J95  0.0   0.1+    240306 H01  0.1-  0.0
240305 G96 (1.7-  0.7-)   240305 J57  0.8+  0.4+
240305 I52  0.3-  0.3-    240305 J95  0.1-  0.0
Ephemeris:
2024 EZ1                 a,e,i = 1.25, 0.24, 5                   q = 0.9550
Date    TT    R. A. (2000) Decl.     Delta      r    Elong.  Phase     V
2024 02 05    09 48 41.0 -08 33 54   0.1313  1.1049   153.5    23.4    24.0
...
2024 02 20    10 13 28.4 -08 39 00   0.06881 1.0535   160.0    18.7    22.3
...
2024 02 28    10 55 35.0 -05 50 51   0.03977 1.0289   165.3    14.1    20.9
...
2024 03 05    12 34 30.2 +02 28 24   0.02198 1.0121   156.9    22.6    19.9
2024 03 06    13 06 05.3 +05 09 45   0.01994 1.0095   150.3    29.1    19.9
2024 03 07    13 44 06.6 +08 14 59   0.01840 1.0069   141.8    37.6    19.9
...
2024 03 13    17 55 15.6 +19 23 43   0.02322 0.9925    85.7    93.0    22.2
...
2024 03 21    19 50 05.6 +17 34 21   0.04731 0.9765    64.3   113.2    24.8
...
2024 04 05    20 46 22.2 +15 09 56   0.09856 0.9581    62.0   112.8    26.3
M. P. C. Staff               (C) Copyright 2024 MPC           M.P.E.C. 2024-E79
    
    
More information about the Iaude
mailing list